AKST,Max TemperatureF,Mean TemperatureF,Min TemperatureF,Max Dew PointF,MeanDew PointF,Min DewpointF,Max Humidity, Mean Humidity, Min Humidity, Max Sea Level PressureIn, Mean Sea Level PressureIn, Min Sea Level PressureIn, Max VisibilityMiles, Mean VisibilityMiles, Min VisibilityMiles, Max Wind SpeedMPH, Mean Wind SpeedMPH, Max Gust SpeedMPH,PrecipitationIn, CloudCover, Events, WindDirDegrees
2013-12-1,35,27,19,17,13,6,0,0,0,30.53,30.42,30.30,10,10,10,37,14,48,0.00,0,,297
2013-12-2,31,24,16,27,17,12,0,0,0,30.70,30.63,30.54,10,10,10,10,4,10,0.00,1,,263
2013-12-3,39,31,22,36,31,20,0,0,0,30.69,30.59,30.46,10,10,9,12,5,20,0.02,7,Rain,137
2013-12-4,41,39,37,40,38,35,0,0,0,30.47,30.35,30.28,10,5,0,8,2,10,0.03,8,Fog-Rain,149
2013-12-5,41,39,37,41,39,37,0,0,0,30.43,30.34,30.28,10,2,0,7,2,8,0.02,8,Fog-Rain,191
2013-12-6,43,41,39,43,41,39,0,0,0,30.47,30.45,30.43,10,3,0,15,6,17,0.06,8,Fog-Rain,107
2013-12-7,41,38,34,38,35,31,0,0,0,30.47,30.44,30.43,10,10,10,13,4,16,0.00,7,,137
2013-12-8,42,35,27,38,33,26,0,0,0,30.47,30.41,30.32,10,9,5,10,2,14,T,6,Rain,209
2013-12-9,40,36,31,37,35,32,0,0,0,30.32,30.28,30.15,10,8,0,7,2,9,0.00,7,Fog,262
2013-12-10,47,41,35,41,39,36,0,0,0,30.14,29.84,29.58,10,3,1,30,10,37,0.10,8,Rain,27
2013-12-11,42,37,31,41,30,21,0,0,0,29.57,29.50,29.43,10,9,3,15,13,18,0.13,6,Rain,318
2013-12-12,31,25,19,19,12,5,0,0,0,29.45,29.43,29.41,10,10,8,20,12,22,T,5,Snow,302
2013-12-13,30,25,19,22,17,11,0,0,0,29.40,29.12,28.96,10,9,5,20,14,28,T,7,Snow,298
2013-12-14,28,21,14,18,9,1,0,0,0,29.27,29.04,28.94,10,10,7,25,10,31,T,6,Snow,298
2013-12-15,23,19,14,14,6,1,0,0,0,29.94,29.66,29.30,10,9,4,28,9,37,T,4,Snow,270
2013-12-16,23,17,10,13,8,2,0,0,0,30.10,30.02,29.95,10,9,5,18,7,29,T,4,Snow,310
2013-12-17,29,20,11,16,13,8,0,0,0,30.35,30.23,30.11,10,10,9,9,8,13,T,1,Snow,272
2013-12-18,38,24,10,37,26,8,0,0,0,30.35,29.89,29.23,10,5,1,32,13,37,0.93,7,Rain-Snow,101
2013-12-19,39,37,35,37,35,33,0,0,0,29.65,29.58,29.35,10,6,2,23,7,29,0.20,8,Rain,345
2013-12-20,42,38,33,37,35,32,0,0,0,29.62,29.59,29.53,10,10,8,13,4,17,0.01,7,Rain,133
2013-12-21,38,36,33,37,35,34,0,0,0,29.61,29.54,29.43,10,6,1,15,5,20,0.36,8,Rain,280
2013-12-22,38,34,29,36,23,5,0,0,0,29.81,29.56,29.44,10,10,10,41,18,52,0.01,4,Rain,289
2013-12-23,31,27,22,16,12,7,0,0,0,30.06,30.00,29.83,10,10,10,31,8,41,0.00,5,,277
2013-12-24,37,30,23,34,29,16,0,0,0,29.99,29.70,29.56,10,4,1,38,20,44,0.34,8,Snow,4
2013-12-25,32,31,30,27,23,20,0,0,0,29.66,29.64,29.62,10,10,8,26,17,33,T,8,Snow,298
2013-12-26,32,27,21,26,24,20,0,0,0,29.74,29.70,29.66,10,10,10,20,6,25,0.00,5,,278
2013-12-27,41,32,23,39,32,22,0,0,0,29.75,29.70,29.63,10,6,1,21,6,24,0.62,7,Rain-Snow,288
2013-12-28,39,34,29,35,32,29,0,0,0,29.87,29.85,29.77,10,10,3,21,9,25,0.00,5,,294
2013-12-29,40,36,32,38,35,31,0,0,0,29.86,29.70,29.51,10,4,0,20,8,24,0.51,8,Fog-Rain-Snow,347
2013-12-30,40,38,35,38,36,30,0,0,0,29.53,29.46,29.39,10,6,2,13,5,16,0.16,7,Rain,342
2013-12-31,43,38,32,42,35,30,0,0,0,29.53,29.26,28.85,10,4,0,37,16,49,0.87,8,Fog-Rain,120